Pierceville, KS

3:00 AM CDT on August 25, 2016 (GMT -0500)
Garden City Regional

Weather History for KGCK - May, 2013

Change the Weather History Date:

Tuesday, May 7, 2013

  Actual Average Record
Temperature  
Mean Temperature 67 °F 60 °F  
Max Temperature 82 °F 74 °F 93 °F (1962)
Min Temperature 52 °F 47 °F 32 °F (1999)
Degree Days  
Heating Degree Days 0 6  
Month to date heating degree days 108 47  
Since 1 July heating degree days 5162 5109  
Cooling Degree Days 2 1  
Month to date cooling degree days 2 7  
Year to date cooling degree days 6 19  
Growing Degree Days 16 (Base 50)    
Moisture  
Dew Point 45 °F    
Average Humidity 55    
Maximum Humidity 89    
Minimum Humidity 21    
Precipitation  
Precipitation 0.02 in 0.08 in 2.20 in (1995)
Month to date precipitation 0.05 0.53  
Year to date precipitation 0.93 4.59  
Sea Level Pressure  
Sea Level Pressure 29.86 in    
Wind  
Wind Speed 16 mph (South)    
Max Wind Speed 29 mph    
Max Gust Speed 37 mph    
Visibility 10 miles    
Events Rain    
T = Trace of Precipitation, MM = Missing Value Source: NWS Daily Summary

Daily Weather History Graph

Daily Weather History Graph

Search for Another Location

Airport or City:

Trip Planner

Search our weather history database for the weather conditions in past years. The results will help you decide how hot, cold, wet, or windy it might be!

Date:

Astronomy

May. 07, 2013 Rise Set
Actual Time 6:39 AM CDT 8:39 PM CDT
Civil Twilight 6:11 AM CDT 9:08 PM CDT
Nautical Twilight 5:36 AM CDT 9:43 PM CDT
Astronomical Twilight 4:58 AM CDT 10:21 PM CDT
Moon 5:12 AM CDT (5/7) 6:42 PM CDT (5/7)
Length of Visible Light 14h 57m
Length of Day
13h 59m
Waning Crescent, 5% of the Moon is Illuminated
May 7
Waning Crescent
May 9
New
May 17
First Quarter
May 24
Full
May 31
Last Quarter

Hourly Weather History & Observations

Time (CDT) Temp. Dew Point Humidity Pressure Visibility Wind Dir Wind Speed Gust Speed Precip Events Conditions
12:54 AM 57.9 °F 44.1 °F 60% 29.96 in 10.0 mi SE 9.2 mph - N/A   Overcast
1:54 AM 55.9 °F 46.9 °F 72% 29.96 in 10.0 mi SSE 9.2 mph - N/A   Overcast
2:54 AM 53.1 °F 46.0 °F 77% 29.96 in 10.0 mi SSE 6.9 mph - N/A   Scattered Clouds
3:54 AM 54.0 °F 46.0 °F 75% 29.97 in 10.0 mi South 8.1 mph - N/A   Overcast
4:54 AM 53.6 °F 48.2 °F 82% 30.02 in 10.0 mi South 8.1 mph - N/A   Overcast
5:54 AM 53.1 °F 46.9 °F 80% 29.96 in 9.0 mi South 10.4 mph - 0.01 in Rain Light Rain
6:54 AM 52.0 °F 48.0 °F 86% 29.95 in 10.0 mi SSE 12.7 mph - 0.00 in   Overcast
7:54 AM 53.6 °F 48.2 °F 82% 30.01 in 10.0 mi SSE 17.3 mph - N/A   Overcast
8:54 AM 54.0 °F 50.0 °F 86% 29.95 in 10.0 mi SSE 19.6 mph - N/A   Mostly Cloudy
9:54 AM 60.1 °F 48.9 °F 67% 29.94 in 10.0 mi SSE 26.5 mph 34.5 mph N/A   Clear
10:54 AM 63.0 °F 48.9 °F 60% 29.92 in 10.0 mi SSE 21.9 mph 34.5 mph N/A   Clear
11:54 AM 66.9 °F 48.0 °F 51% 29.91 in 10.0 mi South 25.3 mph 33.4 mph N/A   Partly Cloudy
12:54 PM 71.1 °F 46.9 °F 42% 29.88 in 10.0 mi South 26.5 mph 34.5 mph N/A   Scattered Clouds
1:54 PM 75.0 °F 45.0 °F 34% 29.84 in 10.0 mi South 26.5 mph 35.7 mph N/A   Clear
2:54 PM 78.1 °F 44.1 °F 30% 29.81 in 10.0 mi South 19.6 mph 31.1 mph N/A   Clear
3:54 PM 79.0 °F 39.9 °F 25% 29.77 in 10.0 mi South 21.9 mph 31.1 mph N/A   Partly Cloudy
4:54 PM 81.0 °F 39.0 °F 22% 29.74 in 10.0 mi South 12.7 mph 31.1 mph N/A   Partly Cloudy
5:54 PM 81.0 °F 39.9 °F 23% 29.72 in 10.0 mi South 20.7 mph 31.1 mph N/A   Partly Cloudy
6:54 PM 81.0 °F 37.9 °F 21% 29.70 in 10.0 mi SSW 17.3 mph 27.6 mph N/A   Clear
7:54 PM 77.0 °F 39.9 °F 26% 29.70 in 10.0 mi South 16.1 mph 24.2 mph N/A   Clear
8:54 PM 69.1 °F 41.0 °F 36% 29.73 in 10.0 mi South 9.2 mph - N/A   Clear
9:54 PM 68.0 °F 44.1 °F 42% 29.74 in 10.0 mi SSE 20.7 mph - N/A   Scattered Clouds
10:54 PM 63.0 °F 46.0 °F 54% 29.79 in 10.0 mi SSW 11.5 mph - N/A   Scattered Clouds
11:54 PM 60.1 °F 46.0 °F 60% 29.78 in 10.0 mi SSE 10.4 mph - N/A   Clear